Location: Hains Lake
(37.8540°N, 99.8578°W)
Time: 03:44:27
(UTC+00:00)

Vanguard 2 Rocket - Pass Details

Date: 22 April 2021
Orbit: 553 x 3326 km, 32.9° (Epoch: 07 May)

Event Time Altitude Azimuth Distance (km) Brightness Sun altitude
Rises 23:17:10 0° 276° (W) 7,111 12.9 23.5°
Reaches altitude 10° 23:21:48 10° 274° (W) 6,219 13.2 22.6°
Maximum altitude 23:41:57 66° 199° (SSW) 3,272 10.1 18.6°
Drops below altitude 10° 23:57:18 10° 121° (ESE) 4,904 10.1 15.6°
Sets 00:00:28 0° 118° (ESE) 5,601 10.4 15.0°
